RH
46 46 47 48 48 47 46 45 45 44 44 44 45 45 46 47 48 49 50 51 52 52 53 55 56 57 58 58 59 58 57 56 55 55 54 55 56 56 57 58 59 59 60 61 62 63 63 64 64 65 65 66 67 68 68 69 70 71 71 72 72 72 73 75 78 81 83 83 84 84 85 86 86 85 84 82 80 77 75 75 74 73 73 74 74 75
48 49 49 49 48 47 46 45 45 45 45 46 47 48 49 50 51 51 52 53 54 56 58 59 59 59 57 56 54 53 52 52 52 52 52 53 54 55 55 56 57 58 58 59 60 61 62 63 63 64 65 66 67 68 69 70 71 72 72 72 72 73 77 82 85 87 89 88 88 89 88 89 90 90 91 91 88 86 83 81 80 79 77 75 72 70
51 51 50 49 48 47 46 46 46 47 48 48 50 51 52 53 54 55 56 57 59 61 62 61 59 57 54 51 50 49 48 49 49 50 51 51 52 53 54 55 56 57 58 60 61 62 63 64 65 66 67 68 69 70 71 73 74 75 75 76 77 80 84 87 87 87 85 85 85 85 85 85 87 89 90 90 89 88 87 86 87 87 85 83 81 78
53 51 50 50 50 49 49 48 49 49 50 51 52 53 54 56 58 60 62 63 64 64 63 59 55 52 49 47 46 45 45 46 47 48 49 50 51 52 53 55 56 58 60 61 63 64 64 65 66 67 68 69 71 72 74 76 77 79 80 82 83 85 85 84 83 82 81 81 81 82 84 86 89 90 89 87 88 89 90 93 94 95 93 94 93 91
54 53 52 52 52 51 51 51 52 52 53 54 55 56 58 60 63 66 68 68 66 62 57 53 49 47 45 43 43 43 43 44 45 46 47 49 51 52 54 56 58 59 61 62 62 63 64 65 66 68 69 71 73 75 76 78 80 82 84 84 84 82 80 79 79 79 80 82 84 85 88 90 91 91 89 88 87 88 89 91 93 95 96 98 98 98
57 56 56 55 55 54 53 54 54 55 55 56 58 61 64 67 69 69 68 64 59 54 50 47 45 43 42 41 41 41 42 43 44 46 48 50 51 53 55 57 58 59 60 61 62 63 65 66 68 70 72 74 75 77 78 79 80 80 80 79 79 78 78 79 80 81 82 84 85 86 88 87 86 85 83 81 81 81 81 82 84 86 90 93 94 95
60 58 58 57 56 55 54 55 55 56 58 61 65 69 72 71 68 64 60 56 52 48 46 44 42 41 40 39 40 41 42 43 45 47 49 51 52 54 55 57 58 60 61 62 64 65 67 69 70 72 73 74 75 75 76 76 76 76 75 76 76 77 78 79 80 81 82 83 83 83 82 82 81 80 79 78 77 77 76 76 77 78 82 84 85 87
60 58 57 56 56 55 55 56 58 61 66 71 75 76 73 66 60 55 51 48 46 43 42 40 39 39 40 40 41 43 44 45 47 48 50 51 52 54 56 57 59 61 62 64 65 66 67 68 69 70 70 70 71 71 71 71 72 72 73 74 75 76 77 78 78 79 79 80 81 81 81 82 82 82 81 81 80 80 78 78 77 77 77 78 79 79
60 59 58 57 57 58 59 61 65 71 76 78 76 72 65 58 52 48 44 42 41 40 39 39 40 41 42 43 45 46 47 48 50 51 52 53 54 56 58 59 60 62 62 63 64 64 65 65 66 66 66 67 67 68 68 69 70 71 72 73 74 75 75 76 76 77 78 79 81 82 83 83 83 83 83 84 84 83 82 82 81 80 79 78 78 77
64 63 62 61 62 65 70 73 75 77 78 73 68 61 55 50 46 43 40 39 39 40 41 42 43 44 46 47 48 49 50 51 52 53 55 56 57 58 59 60 60 60 60 61 61 62 62 62 63 64 64 65 66 67 68 69 70 70 71 72 72 73 74 75 76 78 79 79 80 80 81 82 82 82 82 84 85 85 85 85 85 84 83 81 80 78
66 66 66 67 70 75 81 81 78 73 67 60 55 51 47 44 42 41 40 40 41 42 43 45 47 48 49 50 51 52 53 53 54 55 55 56 56 57 57 57 57 57 57 58 58 59 60 60 61 62 63 65 66 67 68 68 69 69 70 70 71 72 73 75 76 76 77 78 78 79 80 81 81 81 81 83 84 85 85 86 86 85 84 83 81 80
69 69 72 76 78 79 78 73 66 59 53 50 47 45 43 42 41 42 42 43 44 46 47 49 50 51 52 53 54 55 56 55 55 54 54 54 54 54 54 54 54 54 55 56 57 58 59 60 61 62 64 65 65 66 67 68 68 68 68 69 70 71 72 73 74 76 77 79 80 81 82 83 83 83 82 84 84 84 85 86 86 85 83 83 82 80
77 80 83 83 79 72 65 58 53 50 47 46 45 44 42 42 42 43 45 46 48 49 51 51 52 53 54 56 58 58 58 56 55 53 52 52 52 52 53 53 54 55 56 56 57 58 59 60 62 63 64 64 65 65 66 66 66 66 67 68 70 71 73 75 77 79 81 83 84 84 85 85 85 84 83 84 84 85 86 86 86 85 85 83 82 82
84 82 78 71 65 59 54 51 50 49 48 46 45 43 43 43 44 46 48 50 51 52 53 54 56 57 58 59 59 58 57 55 53 52 52 52 52 53 55 56 57 57 58 59 60 60 61 61 62 62 62 62 63 63 63 64 64 66 67 69 72 75 77 80 83 85 86 86 85 85 86 86 86 86 85 85 85 86 87 86 86 85 85 85 84 84
78 72 65 60 57 55 53 52 51 50 48 46 45 44 45 46 47 49 51 53 54 56 57 60 61 61 60 58 56 55 53 52 52 52 52 53 53 55 57 59 60 61 61 61 61 61 61 61 60 60 60 60 61 61 62 64 65 67 68 71 74 77 80 82 84 85 87 87 87 86 85 85 85 84 85 86 85 85 85 84 85 86 87 86 86 86
68 65 62 61 59 57 55 52 50 48 47 46 46 47 48 49 50 52 54 57 59 61 64 65 65 62 58 55 53 52 51 52 52 53 54 55 56 58 60 61 62 63 62 61 61 60 60 60 60 59 59 60 61 62 63 64 66 68 70 73 76 78 80 81 83 84 85 85 85 85 85 85 85 85 86 87 87 85 85 85 86 87 87 86 86 87
67 65 64 62 59 56 52 50 48 47 47 48 49 50 51 52 54 57 60 63 66 69 70 70 68 65 59 54 51 51 51 53 55 57 59 60 61 61 62 63 63 63 62 61 60 60 59 59 59 59 59 60 61 62 64 66 68 70 72 73 75 76 78 80 81 82 83 84 85 86 86 85 85 85 87 87 87 86 86 85 85 86 86 86 87 87
67 65 62 59 55 52 50 49 49 49 50 51 52 53 55 57 60 63 67 72 76 77 76 72 68 65 61 56 53 52 53 55 59 62 65 65 64 63 63 63 63 62 60 60 59 58 58 58 58 58 60 61 63 64 66 67 68 68 70 72 73 75 76 77 78 80 82 84 84 84 84 84 84 84 84 85 84 84 84 83 83 83 84 84 84 85
65 60 56 54 52 52 51 52 52 53 54 56 58 60 62 64 67 71 76 79 79 77 73 69 64 61 60 58 56 55 56 60 64 67 70 68 66 63 62 61 60 60 59 58 57 57 57 58 59 60 61 62 63 63 64 65 66 66 67 68 70 71 73 75 76 78 79 79 80 81 82 83 83 84 85 85 85 85 85 84 84 84 83 83 83 83
62 58 56 55 55 55 55 56 57 59 60 62 65 69 72 75 78 80 80 77 74 70 67 66 64 62 61 60 60 60 61 65 69 72 72 69 65 62 60 59 59 58 57 57 57 57 58 59 59 60 60 60 60 61 61 62 63 64 66 68 69 71 73 75 76 78 79 81 82 83 84 85 84 84 84 84 85 86 86 86 85 85 85 85 85 85
60 58 56 56 58 60 61 62 63 64 65 70 75 80 84 85 84 81 76 72 69 67 66 66 66 66 66 66 66 66 67 70 72 73 71 68 64 61 59 58 58 58 57 57 57 58 58 58 58 58 57 57 58 59 60 62 63 65 67 68 70 72 74 76 78 79 80 81 82 82 83 83 84 84 84 84 84 84 85 84 84 84 85 85 84 83
60 59 59 60 62 64 67 68 69 71 73 80 87 92 92 87 83 77 71 70 69 70 70 71 72 72 72 72 71 70 70 71 72 72 70 67 63 59 57 57 57 58 58 58 58 57 57 56 55 55 55 56 58 60 62 63 65 66 68 69 70 72 73 74 75 76 77 77 78 79 80 81 81 82 82 83 83 84 84 83 83 84 85 85 85 84
60 61 62 63 66 69 72 75 78 81 86 91 94 95 93 88 82 77 75 76 76 77 78 79 78 78 76 75 73 71 68 66 65 65 66 66 62 58 57 57 58 58 58 57 56 55 55 55 55 55 56 58 60 61 63 64 66 67 68 68 69 70 70 71 72 73 75 75 76 77 78 80 82 83 85 85 86 87 88 87 88 88 88 88 88 88
63 65 67 70 73 76 80 84 87 91 95 96 94 90 85 82 81 81 82 84 84 84 84 84 81 77 74 70 67 64 61 60 60 60 62 63 62 60 58 57 57 57 56 55 55 55 56 56 56 57 58 59 60 62 63 64 65 65 66 67 68 69 71 72 74 76 77 79 80 82 83 84 85 86 87 87 88 89 89 89 89 89 90 90 90 90
67 70 73 76 81 85 89 93 95 96 94 89 83 79 78 80 83 85 85 86 85 83 82 80 76 72 67 63 61 59 58 58 59 60 62 63 62 60 57 57 57 57 57 56 57 57 58 58 58 58 58 59 60 61 62 63 64 64 65 67 68 70 72 75 77 80 82 84 85 86 86 87 87 87 88 88 89 89 89 89 89 89 89 90 90 90
73 76 80 83 87 91 93 94 92 88 84 80 79 79 82 85 86 87 86 83 80 78 77 75 71 67 62 61 60 59 58 58 59 60 62 63 62 60 58 58 59 59 59 59 59 59 59 59 59 59 59 60 60 60 60 61 62 63 64 66 68 70 73 76 79 81 83 85 86 87 87 88 88 89 90 89 89 89 90 90 90 90 90 90 90 90
79 83 87 88 89 89 88 84 80 77 76 78 80 83 86 87 88 87 83 78 76 75 76 73 69 66 62 60 60 59 59 59 59 60 60 62 62 62 60 59 60 60 60 60 60 60 60 61 60 60 59 59 58 58 58 59 60 62 64 67 69 71 74 76 78 80 82 83 84 85 86 86 87 88 90 89 89 89 90 91 92 92 92 93 93 93
85 86 88 86 83 80 77 75 74 75 77 78 80 82 85 87 87 85 80 76 75 76 75 73 71 68 64 62 61 60 60 59 59 59 59 62 64 64 61 60 61 62 62 62 62 62 62 61 60 59 58 57 56 56 57 58 60 62 65 67 69 71 72 73 75 76 76 77 78 78 79 80 82 83 85 86 88 89 90 91 92 92 93 95 96 96
84 81 78 75 72 71 71 72 74 75 77 78 79 81 84 85 85 84 79 77 77 77 75 73 71 69 67 64 63 61 60 58 57 57 59 63 65 65 62 62 63 64 65 64 63 61 60 58 57 56 55 55 56 57 58 60 61 63 64 66 67 68 68 69 70 71 71 72 73 74 75 76 78 80 82 84 86 88 90 90 92 93 94 96 97 97
75 71 68 68 69 70 71 72 74 75 76 77 79 80 81 81 81 80 77 77 79 79 77 74 72 70 69 67 65 63 59 56 55 57 62 67 68 67 64 65 65 66 67 67 65 62 58 56 55 55 55 56 57 59 60 61 62 63 63 64 65 65 66 67 68 68 69 70 71 72 73 75 77 79 81 83 86 88 90 90 92 95 97 97 97 96
69 68 68 69 70 71 72 73 74 75 75 75 76 76 76 75 75 76 76 78 81 82 80 77 75 73 72 72 70 65 60 57 58 60 66 71 72 69 67 68 68 68 68 70 69 67 60 57 55 55 57 58 59 60 60 61 61 62 62 63 64 64 64 65 66 67 68 69 70 71 73 74 76 77 80 82 85 87 89 90 92 94 97 97 96 96
69 70 70 71 71 72 72 73 73 73 73 73 72 72 72 72 73 75 77 80 83 84 83 80 78 76 75 75 73 69 64 62 62 65 69 75 76 73 70 71 71 69 68 70 71 71 66 62 59 58 59 60 60 60 60 61 61 62 62 62 63 63 64 65 66 67 68 69 70 71 72 73 75 76 78 81 83 86 88 90 92 93 96 97 96 95
71 71 71 72 72 72 72 71 71 71 71 71 70 70 70 71 72 74 77 80 83 84 84 83 82 80 78 76 74 71 68 66 66 68 72 79 80 77 73 73 72 71 69 69 70 70 68 67 64 62 61 61 60 60 61 61 61 62 62 62 63 63 64 65 66 67 68 69 70 71 72 73 75 76 78 81 83 85 87 89 90 92 94 96 97 96
71 72 71 71 71 71 70 70 70 70 70 69 69 69 69 71 72 74 76 78 80 81 82 84 84 83 81 78 75 71 68 66 67 69 75 82 83 80 76 75 74 73 72 70 69 68 67 66 65 63 62 61 61 61 61 61 61 61 62 62 63 63 64 66 67 68 69 70 71 72 73 74 76 77 79 81 83 85 87 88 89 91 93 95 96 97
71 71 70 70 70 69 69 69 69 68 68 68 68 69 69 70 71 72 74 76 77 78 79 80 82 84 84 83 80 76 71 70 70 74 79 86 87 85 81 78 76 74 75 73 71 69 67 65 64 63 63 62 61 61 61 60 60 61 61 62 64 65 66 67 68 69 70 71 72 73 74 75 76 78 80 82 83 85 86 88 89 90 91 93 95 96
71 70 69 69 69 68 68 68 68 68 68 68 68 69 69 70 71 72 73 75 76 76 77 79 81 82 84 85 85 83 79 76 77 79 83 88 90 89 85 81 78 78 79 77 75 73 70 67 65 64 64 64 63 61 60 60 60 61 63 64 65 66 67 68 69 70 71 72 73 74 75 76 78 79 80 81 83 84 85 86 87 88 90 91 92 94
70 69 68 68 68 68 68 68 68 68 68 68 69 70 71 72 73 73 74 76 77 79 79 81 81 82 82 83 84 84 84 83 83 84 86 89 92 92 89 85 83 82 84 82 79 76 74 72 70 67 65 64 63 61 60 61 62 63 64 65 67 68 69 70 70 71 72 73 74 75 76 77 78 78 79 81 82 83 85 86 87 88 89 90 91 91
69 68 68 68 68 69 68 68 68 69 69 70 71 72 73 73 74 75 76 77 78 79 79 78 78 78 78 79 81 82 84 85 85 85 86 90 92 93 93 89 86 85 85 86 85 83 81 78 74 70 67 64 62 62 63 63 64 65 66 67 68 69 70 70 71 72 72 74 75 75 76 77 78 79 80 81 82 84 85 87 88 89 89 89 90 90
69 69 68 69 69 70 70 70 70 70 71 72 73 74 75 76 76 77 76 76 76 76 75 75 76 76 76 76 77 79 81 83 84 84 85 87 89 92 94 92 89 87 85 87 88 88 86 82 77 74 72 68 66 65 65 66 66 67 68 68 69 69 70 71 71 72 74 75 76 76 77 77 78 79 80 81 83 85 86 87 87 88 88 89 90 90
70 70 70 70 70 71 71 71 72 72 72 74 75 76 77 77 76 75 74 73 73 73 74 75 75 75 75 75 76 78 79 80 81 82 82 83 84 87 91 91 90 90 88 88 89 89 88 85 81 77 75 73 71 69 69 69 69 69 70 71 70 69 70 71 73 74 75 76 76 77 77 77 78 78 80 81 84 86 88 88 88 87 88 91 92 92
72 72 71 70 71 72 72 72 73 73 74 75 76 76 76 76 76 75 73 73 73 73 74 75 75 75 75 75 76 76 77 77 78 79 79 79 80 82 87 90 92 92 92 90 89 89 88 86 83 80 77 76 75 73 72 71 70 71 72 72 72 71 72 73 74 74 74 74 74 74 76 77 78 79 80 82 84 86 89 91 92 91 91 93 95 96
73 73 72 72 72 72 73 73 74 75 76 76 76 76 75 75 76 76 76 75 75 74 75 75 76 76 76 75 75 74 74 74 74 75 75 76 77 79 83 87 90 92 92 91 89 87 85 84 84 83 81 80 78 76 73 72 71 72 73 73 73 73 73 72 72 71 71 72 73 75 77 79 80 80 82 84 86 88 90 93 95 96 96 97 97 97
73 73 73 73 73 74 74 75 76 76 76 75 74 74 75 75 76 77 77 77 77 77 77 78 78 78 77 76 74 72 71 71 71 72 73 74 75 76 79 82 86 89 92 91 89 87 84 83 83 82 81 81 80 79 76 74 73 73 73 73 74 75 74 71 70 71 72 74 76 78 79 80 81 82 84 86 89 92 93 94 95 96 97 98 98 98
75 74 74 75 75 75 75 75 74 74 75 75 75 75 75 76 77 78 79 80 79 78 78 79 79 79 79 76 72 70 69 69 69 70 71 72 73 74 76 79 84 88 93 93 91 88 85 82 80 79 79 80 81 81 78 77 75 75 74 75 75 76 75 73 72 73 74 76 77 78 79 81 82 83 85 86 88 89 90 91 93 95 96 97 98 97
75 75 75 74 74 74 75 75 75 75 75 75 76 76 75 76 77 79 79 79 80 80 79 80 80 80 77 73 71 69 68 69 69 70 71 71 71 72 74 78 83 88 93 94 94 93 90 85 82 80 80 81 82 82 81 78 77 76 75 75 75 74 74 74 74 75 76 77 78 79 80 82 85 87 87 85 83 83 85 89 92 94 96 97 98 98
75 75 75 75 75 75 75 75 75 75 75 75 75 76 76 76 77 78 79 79 80 81 80 81 81 79 76 74 72 71 70 70 70 70 70 70 71 72 74 77 81 85 89 91 91 91 90 88 86 85 84 83 82 81 80 78 77 76 74 74 73 72 72 73 75 76 77 79 80 81 82 85 87 89 87 83 81 81 84 87 91 94 96 96 98 99
77 77 77 76 76 75 75 75 75 75 75 75 75 75 75 76 77 77 78 80 81 81 81 80 79 78 77 75 74 73 72 72 71 70 70 71 71 72 74 76 78 81 85 87 88 88 86 86 86 86 86 85 82 79 77 77 76 76 74 73 72 72 73 75 76 77 78 80 81 83 84 87 87 85 83 81 80 79 81 85 88 91 93 96 98 99
78 78 77 76 76 75 75 75 75 75 75 75 75 75 74 75 76 78 79 80 80 81 81 79 78 77 76 75 74 73 73 73 72 72 72 72 72 73 73 75 77 80 82 83 84 83 81 80 81 82 83 84 82 80 77 76 76 75 73 72 73 74 76 76 76 77 78 80 83 85 88 90 89 87 85 83 81 78 76 80 84 87 90 93 96 98
79 78 77 77 77 76 76 76 75 75 75 75 74 74 74 75 76 78 79 79 79 79 79 79 78 78 76 75 74 73 73 73 73 72 72 72 72 73 74 76 77 79 79 79 78 77 75 73 73 74 75 77 78 78 78 76 75 74 74 74 75 76 77 77 77 77 79 81 84 87 90 91 91 90 89 86 82 78 74 76 79 82 84 87 91 94
79 79 78 78 77 77 77 76 76 76 77 76 76 76 76 76 76 77 77 78 78 78 78 78 78 78 77 76 75 74 74 74 73 73 73 72 73 74 76 77 79 79 79 77 75 72 70 68 66 65 66 68 71 75 77 77 76 76 75 75 75 75 76 77 77 78 80 82 85 88 91 91 91 89 87 85 82 79 76 74 75 76 79 83 88 92
79 79 79 78 78 78 78 78 78 78 78 79 78 78 78 77 76 76 76 77 77 77 77 77 78 78 77 76 75 75 75 75 75 74 74 73 74 76 78 79 80 81 80 77 74 71 69 66 63 61 59 59 62 67 72 73 73 74 74 74 74 74 76 78 79 80 82 84 86 88 90 89 87 85 84 84 83 81 78 75 75 76 79 84 89 93
Wind_Speed
21 22 22 22 23 24 24 23 23 24 25 24 24 24 24 24 25 25 25 25 25 25 25 26 27 28 29 30 30 31 32 32 33 33 33 33 33 33 33 33 33 34 34 35 35 36 36 36 36 37 37 37 37 37 37 36 36 36 36 36 36 35 36 36 36 36 36 36 36 36 37 37 37 37 38 39 39 39 40 40 40 40 40 40 40 39
22 23 23 23 23 24 24 23 23 23 25 26 26 25 25 25 26 25 25 24 24 24 25 26 27 29 30 30 31 31 31 31 32 32 32 32 32 32 33 33 34 34 35 35 36 36 36 36 36 36 36 36 36 36 36 36 36 35 35 35 35 35 36 36 36 37 37 37 37 36 36 36 36 36 37 37 38 38 38 38 38 39 39 40 40 40
23 23 23 22 22 23 24 24 24 24 25 26 26 26 26 26 25 25 24 24 24 24 25 27 28 29 30 30 30 30 30 30 30 30 31 31 32 33 33 34 35 35 36 36 36 36 36 36 36 36 36 36 36 36 36 36 36 36 36 36 36 36 36 37 37 37 37 37 36 36 36 36 36 36 37 37 37 37 36 36 36 37 37 37 37 37
23 23 24 23 23 23 24 25 25 25 25 25 25 25 25 25 24 23 23 24 25 26 27 27 28 28 28 28 28 28 29 29 30 30 31 32 33 34 34 35 35 35 36 35 36 35 35 35 36 35 35 36 36 36 36 36 36 36 36 36 36 37 37 37 38 38 37 37 36 36 36 36 36 36 36 37 36 35 35 34 34 35 35 34 33 33
22 23 24 24 24 24 24 25 25 25 25 24 24 23 23 23 23 23 24 25 26 27 27 27 27 27 27 27 27 28 28 29 30 31 32 33 33 34 34 35 35 35 35 35 35 35 35 35 35 35 35 35 36 36 36 36 37 37 37 37 37 37 38 38 38 38 37 37 36 36 36 35 35 35 36 36 36 35 34 34 33 33 33 33 32 31
23 23 24 24 24 24 25 24 24 24 24 23 22 21 21 22 23 24 25 26 26 26 26 26 26 26 26 27 27 28 29 30 31 32 32 32 33 33 33 34 34 34 34 34 34 34 34 34 35 35 35 36 36 36 36 37 37 37 37 38 38 38 38 38 38 38 37 37 36 36 36 35 35 36 36 36 36 36 35 35 34 34 34 34 33 33
24 24 23 23 24 25 25 24 23 23 23 22 22 21 21 22 24 25 26 26 26 26 26 26 26 26 26 26 27 28 29 30 31 31 31 31 31 32 32 32 33 33 33 33 34 34 34 34 35 35 35 36 36 36 37 37 37 38 38 38 38 38 38 38 37 37 37 36 36 36 36 36 36 36 36 36 36 36 36 36 36 36 35 35 35 35
25 25 24 23 24 25 25 24 22 20 20 21 21 21 23 24 25 26 26 26 25 25 25 25 26 26 26 26 27 28 28 29 29 30 30 30 30 31 31 32 32 32 33 33 33 33 34 34 34 35 35 36 36 36 37 37 37 37 37 38 37 37 37 37 37 36 36 35 35 35 35 35 35 35 35 35 35 35 35 35 36 36 37 37 37 37
24 25 25 25 24 24 25 24 21 18 18 20 21 22 24 26 26 26 26 25 25 24 25 25 26 26 26 26 26 27 28 29 29 29 29 29 30 30 31 31 32 32 32 32 32 33 33 34 34 34 35 35 36 36 36 36 36 37 37 37 36 36 36 36 35 35 35 34 34 34 34 34 34 34 34 34 33 33 33 34 35 35 36 36 37 37
23 24 25 25 24 22 20 20 20 19 18 20 22 23 24 26 26 26 25 25 25 24 24 25 26 26 27 27 27 27 28 29 29 29 29 29 29 30 30 31 31 31 31 32 32 32 33 33 34 34 34 35 35 35 35 35 35 35 35 35 35 35 35 35 34 34 34 34 33 33 33 33 33 33 33 33 32 32 33 33 34 34 35 35 36 36
23 23 23 22 21 18 16 17 19 20 20 22 24 25 24 24 25 24 24 25 25 25 25 25 25 26 26 27 27 27 28 28 29 29 28 28 28 28 29 29 29 30 30 31 31 32 32 33 33 33 33 34 34 34 34 34 34 34 34 34 34 34 34 34 33 33 33 33 33 33 33 33 33 33 33 33 32 33 33 33 34 34 34 34 35 35
22 22 20 18 17 17 17 19 20 22 23 24 24 24 24 24 23 23 23 24 25 26 26 26 26 26 26 26 26 27 27 28 28 28 27 26 26 26 26 27 28 28 29 30 30 31 31 31 31 32 32 32 32 32 32 32 33 33 33 33 33 33 33 33 33 33 33 33 33 33 33 33 33 33 33 33 33 33 33 34 34 34 34 34 34 35
20 18 16 16 16 18 20 22 23 24 24 24 23 22 22 23 24 23 24 24 25 25 26 26 27 26 26 25 25 25 26 27 27 27 26 26 25 25 25 26 27 28 28 29 30 30 30 30 30 31 31 31 31 31 31 31 31 32 32 32 32 32 32 32 32 33 33 33 34 34 34 34 34 34 34 34 34 34 34 34 34 35 35 35 35 35
16 16 16 18 19 21 23 24 24 23 23 23 23 23 24 24 24 24 23 24 25 25 26 26 27 26 26 24 23 23 24 25 27 27 26 25 25 25 25 27 28 29 29 29 29 29 29 29 29 29 29 29 29 29 29 30 30 30 31 31 32 32 32 33 33 34 34 34 35 35 35 35 35 35 35 35 35 35 35 35 35 35 35 36 36 36
16 17 18 19 20 22 23 24 23 23 24 24 24 24 24 24 23 23 22 23 24 25 26 26 26 26 24 23 22 22 23 24 25 26 26 26 26 25 26 27 28 29 29 29 29 29 29 28 28 28 28 28 28 29 29 30 30 31 31 32 32 33 34 34 34 35 35 35 35 35 35 35 35 35 35 35 35 35 35 35 35 35 35 36 36 36
18 19 18 19 20 22 23 23 23 23 24 24 24 23 23 22 22 22 22 23 24 24 23 23 22 22 23 24 23 22 23 24 25 25 26 27 27 27 26 27 28 29 29 29 29 29 28 28 27 27 28 28 28 29 30 30 31 32 33 33 34 35 35 35 35 35 35 35 35 35 35 35 35 35 35 35 35 35 35 35 35 35 36 36 36 36
20 20 20 20 21 22 24 24 23 23 23 23 22 22 21 22 22 23 22 23 22 21 20 18 12 9 15 23 25 23 23 23 24 26 26 27 28 28 27 26 27 29 29 29 28 27 27 27 27 27 27 28 28 30 31 32 33 33 34 34 35 35 35 35 35 35 35 35 35 35 35 35 35 35 35 35 35 36 35 35 35 35 36 36 36 36
20 21 21 21 22 22 23 23 22 22 22 21 21 22 22 23 23 23 22 21 20 19 18 18 14 9 7 14 22 26 24 24 25 26 26 28 29 29 27 26 26 28 29 28 27 27 27 27 27 27 28 29 30 31 32 33 34 34 34 34 34 35 35 35 35 35 35 35 35 36 36 36 36 36 36 36 36 36 36 36 36 36 36 36 36 36
21 22 22 22 22 22 22 22 21 21 20 21 21 22 24 25 24 23 21 21 20 19 19 18 18 18 16 19 25 28 27 26 26 26 25 26 28 28 27 26 26 27 28 28 27 27 26 27 28 28 29 30 31 32 32 33 33 34 34 34 35 35 35 35 36 36 36 36 36 36 36 36 36 36 36 36 36 36 36 36 36 36 36 36 36 36
22 22 22 21 21 22 21 21 21 21 21 22 24 25 25 25 23 22 20 20 21 21 22 21 21 21 23 25 27 29 28 26 25 24 25 26 27 28 27 25 25 26 27 28 27 26 26 27 28 28 29 30 30 31 32 33 34 34 35 35 35 36 36 36 36 36 36 36 36 36 36 36 36 36 36 36 36 36 36 36 36 37 37 37 37 37
23 23 23 22 22 21 21 21 22 23 24 25 26 25 24 22 20 20 21 21 22 24 24 23 22 23 24 26 28 29 28 26 24 23 23 24 25 26 25 24 25 26 27 28 27 26 26 27 27 28 29 30 31 32 33 34 34 35 35 35 35 35 36 36 36 36 36 35 35 35 35 35 35 35 35 36 36 36 36 36 36 36 37 37 37 38
23 23 23 22 22 22 23 24 25 26 27 28 26 22 21 20 20 21 24 24 25 24 24 23 23 25 26 27 29 29 28 25 23 22 21 19 22 25 25 24 24 25 26 27 27 26 26 27 28 29 30 31 32 33 34 34 35 35 35 35 35 35 35 35 35 35 35 35 35 35 35 35 35 35 35 35 36 36 36 36 36 37 37 37 38 38
23 23 23 23 23 23 24 25 26 27 27 26 23 21 20 21 23 24 26 26 26 26 25 25 25 26 27 27 27 27 25 23 22 21 19 13 17 24 25 24 24 25 26 26 27 27 27 28 28 29 30 31 32 33 33 34 34 34 34 33 33 33 33 33 33 33 34 34 34 34 34 35 35 35 35 36 36 36 37 37 37 37 38 38 38 39
23 23 24 24 25 26 27 27 27 26 25 24 23 24 24 24 25 26 26 26 26 26 25 24 25 25 25 25 25 25 24 22 21 20 18 15 18 23 25 24 24 25 26 27 27 27 28 29 29 30 30 31 32 32 32 32 32 32 32 32 32 32 32 32 32 33 33 33 34 34 35 35 35 35 36 36 36 37 37 37 37 38 38 38 39 39
24 24 25 26 27 27 27 26 26 26 26 27 27 28 27 26 26 26 25 25 24 23 22 22 21 20 21 22 23 23 23 21 20 19 18 17 20 24 25 24 23 24 26 28 28 27 28 29 30 30 30 30 31 31 31 30 30 30 30 30 30 31 31 32 32 33 33 34 34 35 35 35 35 35 35 36 36 36 36 37 37 38 38 38 39 39
26 27 28 29 29 29 29 29 29 29 29 29 28 27 26 26 25 24 23 21 21 20 19 18 16 17 20 21 21 22 22 21 20 19 19 18 20 22 24 24 23 23 26 28 28 28 28 29 30 30 30 29 29 29 28 28 28 28 29 30 30 31 32 33 33 34 34 34 35 35 35 35 35 35 35 35 35 36 36 36 37 37 38 38 39 39
28 28 28 28 27 27 27 28 28 29 29 28 26 25 25 24 23 21 20 19 19 18 17 13 11 13 17 17 18 21 22 22 21 20 20 20 19 20 22 23 23 24 26 28 28 28 28 28 29 29 29 28 27 26 26 26 27 28 29 30 31 32 33 33 33 34 34 34 34 34 34 34 35 35 35 36 36 36 36 37 37 37 38 38 38 38
26 25 24 24 24 25 25 26 27 26 26 25 24 24 23 22 21 19 19 19 19 18 17 12 10 9 9 12 17 22 23 23 21 20 19 18 17 17 21 23 23 24 25 27 29 29 28 27 27 27 26 25 25 25 26 27 28 29 30 31 31 32 32 32 32 32 32 32 33 33 33 33 34 34 35 35 36 36 37 37 37 37 38 37 36 35
22 21 21 22 23 24 24 24 24 24 23 23 22 21 21 20 19 18 19 20 19 18 17 15 14 12 11 15 20 22 23 22 21 19 18 17 16 18 22 23 23 23 24 25 27 28 27 25 23 23 23 24 25 26 27 28 28 29 30 30 30 30 30 30 30 30 31 31 31 32 32 33 33 33 34 34 35 36 36 37 37 36 36 35 34 33
20 21 21 22 22 22 22 22 22 21 21 21 21 20 19 18 18 18 19 19 18 17 17 17 17 16 16 16 15 15 17 20 20 18 17 16 15 18 22 22 22 22 22 20 18 17 20 22 22 21 22 24 25 27 27 28 28 28 28 28 28 28 28 28 28 29 30 30 31 31 32 32 33 33 33 34 34 35 35 36 36 35 34 33 32 31
21 21 22 22 21 21 20 20 20 20 20 20 19 18 18 17 17 18 18 18 17 16 17 17 18 18 17 10 6 5 7 18 21 20 19 16 16 18 21 21 21 22 21 17 9 6 11 15 21 25 23 24 26 27 28 28 27 27 27 27 27 27 27 27 28 28 29 30 30 31 31 31 32 32 33 33 33 34 34 35 35 34 33 32 31 30
21 21 21 21 20 20 19 19 19 19 18 18 18 18 17 17 17 17 17 17 17 17 18 18 18 18 17 13 10 8 9 19 24 22 20 18 18 20 21 20 21 22 22 20 15 10 8 7 16 27 27 26 27 27 28 27 27 26 26 26 26 26 27 27 27 27 28 28 29 29 30 30 31 32 32 33 33 33 34 34 34 34 33 31 30 29
20 20 20 20 19 19 19 18 18 18 18 18 18 18 17 17 17 17 17 17 17 17 18 18 18 18 18 18 18 18 20 24 25 24 21 18 18 19 21 21 21 22 22 22 21 18 12 9 16 25 28 28 27 27 27 27 26 26 25 25 25 26 26 26 26 26 26 27 28 28 29 29 30 31 31 32 32 32 33 33 33 33 32 31 30 28
20 19 19 19 19 19 18 18 18 18 18 18 18 18 18 18 17 17 17 17 18 18 18 18 18 18 18 18 19 21 24 26 25 24 22 20 19 20 22 21 21 21 21 20 21 20 18 19 21 22 23 27 28 27 26 26 25 25 24 24 24 25 26 26 25 25 26 26 26 27 27 27 28 28 29 30 30 31 31 32 32 32 33 33 32 30
19 19 19 18 18 18 18 18 18 18 18 18 18 18 18 18 18 18 18 18 19 19 20 20 20 20 19 19 19 20 24 26 27 25 23 21 21 21 22 21 21 21 19 19 19 17 16 20 22 22 20 22 26 27 27 25 24 24 24 24 24 25 25 25 25 25 26 26 26 26 26 26 26 27 27 28 29 29 31 32 33 33 34 35 34 33
18 18 18 17 17 17 18 18 18 18 18 18 18 18 18 18 19 19 20 20 20 21 21 21 22 22 22 22 22 22 25 28 29 28 26 24 23 22 21 21 21 21 19 19 19 17 14 16 21 23 20 16 17 22 27 26 25 25 25 25 25 25 25 25 25 25 25 26 26 26 26 26 26 27 28 29 30 31 33 34 34 35 35 36 36 36
17 17 17 17 17 17 18 18 18 18 18 18 19 19 19 19 20 21 21 21 21 22 22 22 23 23 24 24 25 26 28 29 30 30 29 28 27 25 23 22 23 23 20 19 19 19 17 14 15 17 16 12 12 16 24 27 27 26 26 25 25 25 26 25 25 24 24 25 25 26 27 27 28 29 30 31 31 32 32 32 33 33 34 34 35 36
17 17 17 17 17 17 17 18 18 18 19 19 20 20 20 21 22 22 22 22 22 22 23 23 23 24 25 26 27 29 30 31 33 34 33 31 29 27 24 23 24 23 22 20 20 19 18 13 11 11 11 14 17 21 25 26 27 26 26 26 26 26 26 26 25 24 24 25 26 27 28 28 29 29 29 29 29 29 29 29 29 30 31 32 32 33
16 17 17 17 17 17 17 18 19 19 19 20 20 21 22 22 22 22 22 21 21 21 22 22 23 24 26 27 28 29 29 30 31 33 33 32 30 28 26 24 24 24 23 22 21 20 19 15 12 10 10 12 16 22 26 26 25 26 27 28 28 27 26 25 24 24 25 25 26 27 28 28 28 28 28 28 28 28 28 28 28 29 28 28 29 30
17 17 17 18 18 17 18 18 19 20 21 21 21 22 22 21 21 21 21 20 20 21 21 22 23 24 25 26 26 26 26 27 29 29 30 31 30 29 27 25 24 24 24 23 22 21 20 19 18 19 18 15 15 19 23 25 26 26 26 24 23 25 26 26 25 25 25 25 25 25 26 27 28 28 28 29 29 29 28 28 29 30 30 28 27 27
17 17 18 18 18 18 19 19 20 20 21 22 22 21 21 20 20 20 21 21 21 21 21 22 22 23 24 25 25 24 24 25 26 26 27 28 29 29 27 26 25 24 24 24 23 22 21 20 21 22 22 21 22 23 24 25 26 27 26 22 22 25 28 28 27 26 25 24 24 25 26 28 29 30 30 29 30 29 29 29 30 31 31 30 28 26
17 17 18 18 18 19 19 19 20 20 21 21 20 20 20 19 19 19 20 21 22 22 22 21 21 23 24 25 25 24 23 23 23 24 25 26 26 27 26 26 25 25 24 24 23 23 23 22 22 21 21 22 21 20 21 25 27 26 25 23 25 27 27 27 26 23 23 24 25 26 27 28 29 29 29 29 30 31 31 32 32 32 31 31 30 29
17 18 18 19 19 19 19 20 20 20 20 20 20 20 19 19 19 20 20 21 21 22 21 21 21 21 22 24 25 25 24 24 23 22 23 23 24 25 25 26 26 25 25 23 23 23 23 23 22 22 23 22 21 20 20 23 25 26 25 25 24 22 17 21 24 25 24 25 26 26 27 27 28 29 29 30 30 31 31 31 31 32 32 31 31 30
17 18 18 19 19 19 19 19 19 19 19 20 20 20 20 20 19 20 20 20 21 22 21 21 21 21 21 22 23 24 25 25 24 23 22 22 22 24 24 25 25 25 24 22 21 21 22 23 23 23 23 22 21 21 21 22 23 25 25 25 24 21 17 20 24 27 27 27 27 27 27 28 29 30 31 31 31 30 29 29 30 30 30 30 30 29
17 18 19 19 19 19 19 19 19 20 19 20 20 20 20 20 19 19 20 20 21 21 21 21 20 19 18 20 21 23 24 25 24 23 22 22 22 22 22 22 23 23 22 22 21 21 21 21 23 24 24 23 22 21 21 22 23 24 25 25 24 24 24 26 26 26 25 26 27 27 28 29 30 31 30 31 30 29 28 28 28 28 28 29 28 28
18 18 18 18 18 19 19 19 19 20 20 20 20 20 20 20 19 19 19 20 20 20 21 20 18 17 17 18 20 21 22 23 24 24 23 23 23 22 21 20 20 20 20 21 22 22 22 22 23 24 24 23 22 23 23 22 22 22 23 24 23 23 24 25 25 25 25 25 26 27 29 30 30 29 28 29 30 29 28 27 27 27 27 28 28 28
17 18 18 18 18 18 18 19 19 19 20 20 20 20 20 20 19 20 20 20 19 19 20 20 19 18 18 19 19 19 19 21 22 24 24 24 24 23 21 20 19 19 20 20 21 22 24 24 25 24 23 21 20 20 22 22 22 21 21 22 23 22 22 23 24 25 25 25 26 27 30 30 30 29 29 29 29 29 28 27 27 27 28 28 28 28
18 18 18 19 19 19 19 19 19 19 19 20 20 21 21 20 20 20 20 20 19 19 19 19 18 18 19 20 20 20 20 20 21 22 23 24 24 23 22 21 20 20 20 21 22 23 23 24 25 24 23 21 19 18 20 22 22 21 21 22 22 22 22 24 25 26 25 25 26 28 29 29 27 27 28 27 27 27 28 28 28 27 27 26 26 27
17 18 18 18 18 19 19 19 19 19 19 20 21 21 22 21 21 20 20 20 19 19 18 18 18 18 18 19 20 21 21 21 21 22 22 23 23 23 22 22 22 22 22 22 22 22 22 23 22 22 22 22 21 20 21 21 22 22 22 22 22 21 22 24 25 26 25 25 27 28 28 27 27 27 26 24 22 24 27 29 29 28 28 27 27 27
17 17 18 18 18 18 19 19 19 19 19 20 21 22 22 22 22 21 20 19 19 18 18 18 18 18 18 19 20 21 21 21 21 21 22 22 22 22 22 22 22 22 21 21 21 21 21 20 20 19 18 19 20 20 20 20 21 21 21 21 22 22 22 23 24 25 25 26 27 27 27 27 26 26 25 22 20 21 25 27 29 30 29 29 29 29
17 17 18 18 18 18 19 19 19 19 20 20 21 21 22 22 21 21 20 19 19 18 19 19 18 18 18 19 20 20 21 21 20 20 22 22 22 21 21 21 21 19 18 17 17 16 15 13 13 15 16 15 14 15 16 18 19 20 20 21 22 22 22 22 24 26 26 26 26 26 26 25 25 24 23 21 18 16 17 22 26 30 31 31 30 30
Wind_Direction
300 301 302 302 301 300 299 299 300 300 300 300 300 300 301 300 299 299 298 297 296 296 295 294 294 293 293 293 292 292 293 293 294 294 294 294 294 293 293 293 293 293 292 292 292 292 292 292 292 291 291 291 291 290 290 289 288 288 287 286 285 285 284 283 283 283 283 282 282 281 280 279 278 277 276 275 274 274 273 273 273 272 272 272 271 271
301 301 301 301 300 299 299 300 300 300 301 301 301 300 300 300 300 299 298 297 296 295 295 295 294 294 293 293 294 294 294 294 294 294 294 294 293 293 293 293 293 293 293 293 293 293 292 292 291 291 290 290 289 289 288 288 287 286 285 284 283 282 282 282 283 283 283 283 282 282 281 281 280 279 278 276 274 272 271 271 270 270 270 269 269 269
302 301 300 301 300 300 300 301 302 300 299 299 299 299 300 299 299 298 298 298 297 295 294 294 294 295 294 294 295 295 295 294 294 294 294 294 294 294 294 294 293 293 293 293 292 292 292 291 290 290 289 288 288 287 287 286 286 285 284 283 282 282 282 283 284 284 284 284 283 283 283 282 282 281 280 278 276 274 272 271 270 270 269 268 268 267
299 300 300 301 301 299 299 300 300 300 298 298 298 298 299 298 298 297 296 297 297 296 295 294 295 295 295 296 296 295 295 295 295 295 295 295 295 294 294 293 293 293 292 292 291 291 290 290 289 289 288 288 287 287 286 286 285 285 284 283 283 283 284 285 285 285 285 284 283 282 282 282 281 281 280 280 279 278 276 274 273 272 271 271 271 270
297 298 299 300 300 298 298 298 298 298 298 297 297 298 299 298 297 296 296 296 296 296 296 296 296 296 296 297 297 297 297 296 296 296 295 295 295 294 294 293 293 292 292 292 291 291 290 290 289 289 288 288 288 287 287 286 286 285 285 285 285 285 285 285 285 285 284 284 283 283 282 282 282 282 282 282 283 282 280 279 277 276 275 275 274 274
295 295 296 297 296 296 297 296 297 297 298 298 297 297 297 297 297 297 296 297 297 298 298 298 298 298 297 297 298 298 298 297 297 296 295 295 295 294 294 293 293 293 292 292 292 291 291 290 290 289 289 288 288 287 287 286 286 286 286 286 286 286 286 286 285 285 285 285 284 284 283 283 282 282 282 282 282 282 282 281 280 279 278 277 276 276
294 294 294 293 293 294 294 295 296 298 299 299 299 298 297 297 297 298 298 298 298 299 299 299 299 299 299 299 299 299 299 298 297 296 296 295 295 294 294 294 293 293 293 292 292 292 291 290 290 289 288 288 288 287 287 287 287 286 286 286 286 286 287 287 287 287 286 286 285 285 284 283 282 281 281 280 280 280 280 280 279 278 278 277 276 275
294 293 293 292 293 293 294 294 295 296 297 298 299 299 299 299 300 299 299 299 299 300 301 302 302 301 301 301 301 300 299 298 298 297 297 296 296 295 295 294 294 294 293 293 292 292 291 291 290 289 289 288 288 288 287 287 287 287 287 287 288 288 288 288 288 288 287 287 286 285 284 283 282 281 280 279 278 278 278 278 277 276 276 275 275 274
290 291 291 291 291 292 294 294 294 294 294 295 297 300 302 302 302 302 301 301 302 303 304 304 303 302 302 301 301 300 299 297 297 297 297 297 296 296 295 295 295 294 294 293 293 292 291 291 290 290 289 289 289 289 288 288 288 288 288 288 288 288 288 288 288 287 287 286 286 285 284 283 282 281 280 279 278 278 277 276 275 274 274 273 273 272
285 286 287 289 289 289 289 292 294 295 295 296 297 299 300 302 303 304 305 305 305 305 305 304 303 303 302 302 301 300 299 297 296 296 295 295 295 295 295 294 294 294 294 294 293 293 292 292 291 291 290 290 289 289 289 288 288 288 288 288 287 287 287 287 287 287 286 286 285 284 284 283 282 280 280 279 278 277 276 275 274 273 273 272 271 271
285 285 285 287 288 288 287 290 295 299 302 301 300 299 299 300 303 306 307 307 306 306 305 303 302 301 302 302 301 301 300 299 298 297 297 296 295 295 295 295 295 294 294 294 294 293 293 292 292 291 291 290 290 289 289 288 288 287 287 287 287 287 287 287 286 286 286 285 285 284 283 282 281 280 279 278 277 276 275 274 273 272 272 271 270 270
286 287 287 289 292 295 296 297 300 303 304 304 303 302 301 302 304 306 306 306 306 305 304 302 301 300 300 300 301 301 300 300 299 299 299 299 298 298 298 298 297 297 297 296 296 295 294 293 293 292 291 290 290 289 289 288 288 287 287 287 286 286 286 286 286 285 285 284 283 283 282 281 280 279 278 277 276 275 274 273 272 271 271 270 269 269
287 290 293 296 299 302 303 304 304 304 304 303 303 303 303 305 306 306 304 303 303 303 303 302 300 299 299 299 299 299 300 299 299 299 300 300 300 300 300 300 299 299 298 298 297 296 295 294 293 292 291 290 290 289 288 288 288 288 287 287 286 286 286 286 285 285 284 284 283 282 281 280 280 279 278 277 276 275 274 272 272 271 270 269 268 268
295 299 302 303 303 303 303 303 303 302 302 301 301 301 303 305 306 305 303 301 301 301 301 300 299 299 300 300 300 299 299 299 299 300 299 299 300 301 301 300 299 298 298 298 296 295 295 295 294 293 292 291 290 289 289 289 288 288 288 288 287 287 286 286 286 285 285 285 284 283 282 281 281 280 279 278 277 276 274 273 272 271 270 269 268 267
305 307 305 303 302 301 301 300 300 299 299 300 301 302 303 304 304 304 302 301 300 301 301 300 299 299 300 301 302 302 301 300 300 300 300 299 300 301 301 300 298 297 297 296 295 295 295 295 294 292 292 291 290 290 290 290 289 289 289 288 288 288 288 287 287 287 286 286 285 284 284 283 282 281 280 279 278 276 275 274 272 271 270 269 268 267
306 304 302 300 299 298 298 298 298 298 299 300 301 302 303 303 302 302 300 300 300 301 301 302 302 302 303 303 304 304 304 302 300 300 300 300 300 301 301 300 298 296 296 295 295 295 295 294 293 292 291 291 290 290 290 290 290 290 289 289 289 289 289 288 288 288 287 286 286 285 284 283 282 281 280 279 278 277 276 275 273 272 271 270 269 268
302 300 298 297 297 297 297 298 298 298 299 301 301 301 301 300 300 300 298 298 299 300 300 302 304 304 306 306 306 306 306 304 302 301 300 299 300 300 301 299 296 295 295 294 294 294 294 293 293 292 291 291 291 291 291 291 291 290 290 290 290 290 289 289 288 288 287 286 286 285 284 284 283 282 281 280 279 278 277 276 275 274 272 271 270 269
297 297 296 296 296 297 298 299 298 299 299 300 300 300 300 299 298 297 295 294 296 298 300 303 303 302 303 305 305 305 307 306 304 302 300 299 299 300 300 298 295 293 293 294 294 294 293 293 292 292 292 292 292 292 292 291 291 291 291 291 291 290 290 289 289 288 288 287 287 286 285 285 284 283 282 281 280 279 278 276 275 274 273 272 271 270
295 296 296 296 296 297 297 297 297 298 299 299 301 301 300 298 296 294 293 294 296 299 301 302 301 299 298 298 300 302 305 305 304 301 299 297 298 299 300 298 295 293 293 293 294 294 294 293 293 292 292 292 292 292 292 292 292 292 292 292 291 291 291 290 290 289 289 288 287 287 286 285 284 283 282 281 280 279 278 277 276 274 273 272 272 271
295 295 295 295 295 295 294 294 295 296 297 299 299 298 296 295 294 294 295 298 301 301 301 300 298 296 296 296 297 300 303 304 302 299 297 296 297 298 300 299 296 294 294 294 295 296 295 294 294 294 293 293 293 293 293 293 293 293 293 292 292 292 291 291 290 289 289 288 287 286 285 284 283 282 281 281 280 279 278 277 276 275 274 273 272 271
294 293 292 292 292 292 291 292 294 295 297 297 296 294 292 293 295 299 302 304 304 302 299 297 295 294 295 295 296 298 300 301 300 297 296 296 296 297 298 299 297 295 294 295 296 297 296 296 295 295 295 295 295 295 294 294 294 293 293 292 292 291 290 290 289 289 288 287 286 286 285 284 283 282 281 280 279 278 277 276 275 274 273 272 271 270
292 291 291 290 289 288 289 291 293 294 294 293 291 290 293 299 303 305 305 304 302 299 297 294 293 293 293 293 293 295 297 297 295 294 295 295 295 296 298 299 298 296 295 296 298 299 298 297 297 296 296 296 295 295 294 293 293 293 293 292 292 291 291 290 290 289 288 288 287 286 285 284 283 282 281 280 279 278 276 275 274 273 272 271 270 269
289 289 290 290 289 288 289 290 291 291 291 290 291 294 299 304 304 303 301 300 297 295 294 292 292 291 291 290 291 293 295 295 295 294 294 291 293 296 299 300 299 296 295 297 299 301 300 299 298 298 297 296 295 294 293 293 293 293 293 293 292 292 292 291 291 290 290 289 288 287 286 285 284 283 282 281 280 279 277 276 275 274 273 271 270 269
288 288 289 289 289 288 289 289 289 290 292 295 298 301 302 301 299 297 296 294 293 292 291 291 292 292 291 292 293 294 295 296 297 295 293 290 292 295 299 301 300 298 297 299 301 302 302 300 299 298 297 296 295 294 293 293 293 294 293 293 293 293 292 292 291 291 290 290 289 288 287 287 286 285 284 283 282 281 279 278 277 276 275 273 272 271
288 288 288 288 289 288 288 289 290 293 297 300 301 301 300 299 297 296 294 293 291 291 291 292 292 293 294 296 297 297 297 299 298 296 293 291 292 295 298 300 300 298 299 300 302 303 302 301 300 299 298 296 295 294 294 294 294 294 294 294 294 293 292 291 291 290 290 289 289 288 288 287 286 286 285 284 283 281 280 279 278 277 276 275 274 273
288 287 288 288 289 289 290 291 293 296 298 299 299 299 299 299 299 297 295 293 293 293 294 294 294 295 297 298 298 298 299 301 300 296 293 292 293 295 298 300 300 299 300 301 303 303 302 301 300 300 299 297 296 295 295 294 295 295 295 295 294 294 292 291 290 290 289 288 287 287 286 286 286 285 284 283 283 282 280 279 278 277 276 276 275 273
289 289 289 290 291 292 293 295 296 297 297 298 298 298 299 300 299 297 294 294 295 296 297 296 295 297 298 299 298 298 300 302 300 297 294 292 292 294 297 301 302 302 302 302 302 302 301 300 299 299 298 297 296 296 296 296 297 297 296 296 295 293 292 290 289 289 288 287 286 285 284 284 284 283 282 282 282 282 281 280 279 278 277 276 275 274
293 293 293 294 295 296 297 298 298 298 299 299 299 299 299 299 297 294 292 294 297 297 296 294 293 295 298 298 298 299 300 300 299 298 297 295 292 292 297 302 303 304 303 303 303 302 300 298 297 297 297 297 298 299 299 299 299 298 297 295 294 293 291 290 289 288 288 287 286 286 285 284 283 282 282 282 282 281 281 281 280 279 278 277 275 273
298 298 298 298 299 300 300 300 300 299 299 299 299 299 298 296 292 290 290 293 295 295 293 292 293 293 295 297 298 299 299 298 298 301 304 301 295 294 298 302 304 304 305 306 305 304 302 299 298 298 299 300 301 301 301 301 300 298 297 296 294 293 292 291 290 289 289 288 287 287 287 286 285 284 284 283 282 282 281 281 281 281 280 278 275 273
304 303 303 303 303 303 302 301 300 300 299 299 298 297 296 292 288 286 288 291 291 291 291 291 292 293 295 297 298 298 297 297 300 306 309 305 298 297 301 302 303 305 307 308 308 306 304 303 302 301 302 302 302 302 302 301 300 299 298 296 295 294 292 291 291 290 290 289 289 288 288 287 286 285 285 284 283 282 282 282 282 281 280 278 276 274
307 307 306 305 305 304 303 302 301 300 299 299 299 297 295 292 288 286 287 288 287 287 288 290 291 292 294 295 296 293 294 297 301 306 309 303 297 297 301 302 302 303 305 307 306 304 305 305 306 306 305 304 303 302 302 301 300 299 298 297 296 294 294 293 292 292 291 290 290 289 288 287 286 286 285 285 284 283 283 283 282 282 280 279 277 274
307 307 305 305 304 304 303 302 301 301 300 300 300 298 296 293 290 288 287 286 285 285 286 288 289 289 289 287 285 284 286 294 298 302 304 300 296 297 300 300 300 302 303 302 298 295 299 305 307 307 306 305 304 302 302 301 300 299 299 298 296 295 295 295 294 294 293 292 291 290 290 288 287 286 285 285 284 284 284 283 283 282 281 279 276 274
306 305 304 304 303 303 303 302 302 301 301 300 300 299 297 295 293 291 289 286 285 284 285 286 287 287 287 285 284 283 285 289 294 298 301 299 297 297 299 299 299 300 301 300 296 292 290 292 300 303 304 304 303 302 301 301 300 299 298 298 296 296 296 297 296 296 295 294 293 292 291 289 288 287 285 285 284 284 283 284 283 282 280 278 276 273
304 304 304 303 303 303 303 303 302 302 301 300 300 299 298 297 296 294 292 289 287 285 285 283 283 285 285 285 285 285 286 288 291 296 299 299 296 296 297 298 298 299 300 300 298 295 293 292 295 300 302 303 302 301 300 300 299 299 298 297 296 296 297 297 297 296 295 294 293 292 291 290 289 288 286 285 285 284 283 283 282 282 280 279 277 275
304 304 304 304 304 304 304 304 304 303 302 301 300 300 300 299 298 296 294 292 290 288 286 283 281 280 280 281 282 284 286 288 292 295 297 295 294 294 295 295 296 297 297 297 297 297 296 295 296 298 300 302 302 301 300 300 300 300 299 297 296 295 296 296 296 296 295 294 293 292 291 291 290 290 288 287 285 284 284 283 283 282 281 279 277 276
304 303 304 305 305 306 306 305 305 304 303 302 301 301 301 300 300 298 296 294 292 290 288 284 281 279 277 276 276 278 281 286 290 292 293 291 290 290 291 291 292 293 293 293 294 294 295 296 297 297 298 298 299 301 302 302 303 302 300 299 297 296 296 295 295 295 294 293 292 292 292 292 292 291 290 288 287 286 286 285 284 283 281 279 278 276
303 304 304 306 306 306 306 306 305 305 304 304 303 303 302 301 300 299 298 295 293 291 290 286 283 280 277 275 274 275 277 282 286 287 288 287 286 286 286 287 288 288 288 288 290 292 293 294 295 296 296 293 294 299 301 304 305 304 302 300 299 298 297 296 295 294 293 292 292 292 292 292 292 292 291 290 288 288 287 285 284 283 281 279 277 276
304 304 305 306 307 307 306 306 305 305 304 304 304 303 302 301 299 298 297 295 292 291 291 290 287 285 283 280 278 277 278 280 282 284 285 284 283 282 281 282 284 285 284 283 284 287 289 289 292 293 293 294 294 295 298 301 303 303 302 301 300 299 297 296 296 295 294 293 292 292 292 292 292 292 291 291 291 290 289 287 285 284 283 281 279 277
305 305 306 306 307 307 306 305 304 304 303 302 301 301 301 299 298 298 297 295 294 293 293 292 290 289 288 287 285 283 282 282 283 284 285 284 282 280 279 279 281 283 283 281 280 281 282 283 286 288 290 294 295 295 296 297 298 299 301 302 302 299 297 297 296 296 295 293 293 292 292 292 292 292 291 292 291 291 290 289 288 287 285 283 281 279
305 305 305 306 306 305 304 303 303 303 303 301 301 300 299 298 299 300 299 298 297 297 296 295 294 293 292 291 289 288 286 285 285 285 285 284 283 280 278 278 279 280 282 281 279 277 277 278 281 283 285 287 290 293 295 295 295 297 299 301 300 299 298 298 298 296 294 292 291 291 292 293 294 294 293 292 292 291 289 289 289 289 287 284 281 279
305 305 305 306 305 304 303 302 302 302 302 302 301 301 299 299 300 302 303 303 302 302 301 300 299 298 297 296 294 292 290 289 287 287 287 286 285 283 279 277 277 278 280 281 280 278 277 277 279 281 283 285 287 290 291 292 293 294 296 295 294 294 296 297 296 295 294 293 293 293 294 295 296 295 294 292 292 291 288 287 287 287 286 283 279 276
305 304 305 306 306 305 304 303 302 302 302 301 300 299 299 299 300 300 302 303 304 304 304 303 302 302 302 301 300 299 297 294 292 291 290 289 288 285 281 278 277 277 279 280 281 280 280 279 280 281 283 285 287 288 289 290 292 293 292 291 292 294 297 297 297 297 297 296 296 296 296 296 296 295 294 293 293 292 290 288 285 283 282 281 278 275
305 305 305 305 305 305 304 304 304 304 304 303 302 300 299 300 300 300 301 301 302 303 303 302 302 301 301 302 303 304 303 301 299 297 294 292 290 287 284 281 278 278 278 279 280 281 282 282 282 282 283 284 285 285 287 289 291 292 291 291 292 294 296 298 300 300 300 299 298 297 297 297 297 297 296 295 293 292 291 288 286 283 281 279 277 275
304 304 305 305 306 306 307 307 306 306 305 303 302 301 301 301 301 300 300 299 300 301 301 302 301 300 299 299 302 304 306 306 304 302 299 296 294 292 289 285 282 280 277 275 277 282 286 287 286 285 285 285 284 284 285 287 289 290 290 290 289 288 287 292 297 300 301 300 299 299 299 299 300 300 300 298 296 294 292 290 288 286 284 282 280 277
305 305 306 306 307 308 307 307 306 306 304 303 301 301 302 302 302 301 301 300 300 300 300 301 301 300 299 300 302 304 306 307 307 306 305 303 301 299 294 290 286 282 280 277 277 279 283 285 287 288 288 287 285 283 283 284 286 287 287 289 289 287 287 290 294 297 298 299 300 300 301 302 302 302 302 301 300 298 296 293 291 290 289 288 285 282
307 307 307 307 308 307 306 306 306 307 305 303 302 302 303 304 303 302 301 300 299 299 299 300 299 298 298 299 301 303 305 306 307 308 308 308 306 304 299 294 290 286 283 281 281 281 280 280 283 286 288 287 285 283 281 281 283 285 287 289 291 292 293 294 295 296 297 298 299 301 303 304 305 304 303 303 303 302 299 297 294 293 293 293 291 288
308 308 307 307 307 307 306 307 307 307 306 304 303 303 304 305 305 304 302 300 299 298 299 300 299 296 296 298 299 300 301 303 305 307 308 308 308 307 304 300 296 292 288 286 285 284 283 280 279 280 282 283 284 283 282 282 282 283 286 290 293 295 296 296 297 298 299 298 299 301 304 306 308 307 305 305 305 305 304 302 300 298 297 296 294 292
308 307 307 307 307 307 307 308 307 307 306 305 305 305 307 307 306 304 303 301 300 299 299 300 299 297 297 297 298 299 299 300 301 303 305 306 307 307 307 305 303 300 296 293 290 288 285 282 279 276 275 274 276 278 281 282 283 283 286 290 294 295 296 297 298 300 301 300 299 301 304 306 306 305 305 306 307 308 309 308 307 305 304 301 299 298
306 306 306 306 306 306 306 307 307 306 306 306 306 307 308 308 307 305 302 301 300 299 298 298 298 298 297 298 298 299 300 300 300 301 302 304 306 308 308 308 308 307 305 302 300 297 294 291 285 278 271 266 267 270 275 279 282 284 287 291 293 295 296 297 299 301 302 302 301 302 303 303 302 301 302 304 306 309 312 313 313 313 312 311 309 307
305 305 305 305 305 304 304 305 305 305 304 305 306 306 307 308 307 305 303 302 300 299 298 297 297 297 297 297 298 299 300 301 301 301 302 304 306 307 307 308 309 309 309 309 309 308 306 305 301 293 282 270 263 263 267 275 281 286 289 291 293 295 297 298 300 302 303 304 304 303 303 302 301 301 303 305 307 310 313 316 317 318 318 318 316 315
306 305 305 305 304 303 303 303 303 303 302 302 303 305 305 306 306 306 305 303 301 300 299 298 297 296 296 297 298 299 300 300 300 300 301 304 305 306 306 307 308 309 310 311 312 313 313 312 312 310 306 296 280 269 270 278 285 290 292 293 296 297 298 299 301 302 303 304 304 304 303 303 304 305 307 308 309 310 313 316 318 319 319 319 319 318